Theta_e
305 306 307 305 304 304 304 304 303 302 303 303 302 302 303 305 306 305 306 312 319 321 321 329 332 332 331 330 330 332 331 331 330 328 325 324 323 322 323 325 326 325 325 326
303 304 304 304 304 304 304 305 304 303 303 303 302 302 302 302 303 305 306 313 316 319 321 323 332 332 331 330 330 331 330 330 329 327 325 324 324 323 324 325 325 326 326 326
303 303 302 302 302 304 305 305 305 305 304 302 302 302 303 303 303 304 305 308 318 319 321 322 328 331 330 330 330 330 330 330 329 327 326 325 325 325 325 325 325 326 325 325
302 302 303 304 305 305 307 306 306 306 306 305 302 303 303 303 303 304 304 306 309 318 320 322 327 330 330 330 330 329 329 330 329 328 327 326 325 324 323 324 324 324 323 323
303 303 305 306 305 304 305 306 306 307 308 305 303 304 303 303 304 304 304 305 307 311 317 319 323 330 330 330 330 330 329 329 329 329 327 325 324 322 321 320 321 321 320 321
302 302 301 301 302 303 304 306 307 308 307 307 305 305 304 302 303 304 304 305 307 310 314 318 321 330 330 329 329 329 329 328 328 328 327 324 322 320 318 317 316 318 317 318
300 300 302 303 305 302 307 308 309 309 308 306 304 306 305 302 301 303 304 305 307 309 313 317 318 327 329 328 329 329 328 327 327 327 327 324 321 320 319 316 316 316 315 314
299 299 301 304 303 305 304 306 304 307 302 302 304 302 303 303 302 303 305 307 308 310 313 315 318 321 329 328 328 329 328 327 328 328 327 323 322 321 319 317 317 318 319 317
299 299 299 301 303 306 308 307 307 306 304 306 304 306 304 304 304 304 304 306 309 310 316 318 319 318 328 327 327 327 328 328 328 328 326 323 322 322 319 317 316 317 317 315
298 299 298 301 305 305 306 306 309 306 308 311 310 313 310 315 305 306 304 305 311 312 314 316 319 321 327 327 326 327 327 327 327 326 326 324 322 323 319 317 316 315 314 312
297 301 300 301 305 306 309 309 309 307 307 307 309 320 309 316 316 317 311 309 314 315 316 318 319 325 328 326 326 326 326 326 326 325 325 324 323 322 319 317 315 313 311 308
298 300 299 300 301 305 304 305 307 311 309 309 308 310 307 309 313 315 319 318 317 317 317 318 318 319 321 323 326 327 327 326 325 324 323 323 323 319 315 313 310 309 307 303
299 299 299 301 308 305 304 303 304 306 309 313 314 318 305 306 311 312 314 313 311 310 310 309 307 306 305 303 303 306 310 310 317 318 317 312 309 308 305 303 301 300 299 297
297 299 300 300 300 301 303 300 301 301 308 307 310 306 304 305 309 309 309 307 306 306 305 304 303 301 300 300 299 299 299 300 300 300 298 297 297 297 296 296 296 295 293 292
297 299 299 300 300 301 300 299 300 298 299 303 306 302 302 304 308 307 306 305 304 303 302 302 301 300 299 298 298 297 297 297 298 297 297 296 296 296 296 296 296 296 296 297
298 298 299 301 306 303 298 298 299 296 296 300 303 301 299 299 302 303 303 303 302 301 301 300 300 299 299 298 298 297 296 296 295 295 294 294 296 296 296 296 297 298 297 297
297 299 299 301 303 304 302 297 298 296 294 296 298 301 296 294 295 297 299 300 300 300 299 299 298 298 297 296 296 295 295 294 294 294 294 295 296 296 295 295 294 293 294 294
298 298 300 301 304 305 300 295 296 296 293 292 293 295 298 294 291 289 291 294 294 294 294 293 292 291 292 292 292 292 292 293 293 292 293 293 293 292 291 292 291 290 290 289
299 299 300 304 306 307 299 295 294 295 294 291 291 290 293 298 294 288 285 286 286 286 288 288 287 287 287 288 289 289 288 288 289 288 289 290 291 291 290 290 290 290 290 290
299 301 300 303 303 301 296 292 292 297 296 290 289 288 288 293 292 286 283 283 282 282 281 281 282 282 282 283 284 284 283 283 283 283 285 286 288 288 287 286 286 287 287 285
300 298 300 300 304 300 294 292 292 292 291 290 288 286 285 284 284 283 282 280 280 279 279 278 277 277 278 279 280 280 280 279 279 280 281 282 282 282 283 282 283 283 283 283
299 299 300 296 296 297 292 291 290 289 289 288 287 286 284 283 282 281 280 279 279 278 277 277 276 275 275 276 278 277 277 278 278 279 279 279 279 279 280 279 279 279 280 280
299 296 298 298 297 293 290 288 287 287 286 286 286 285 284 283 281 280 279 278 277 277 276 275 275 273 273 274 275 275 276 277 277 277 277 277 277 277 276 276 276 277 277 276
297 294 299 299 296 291 288 287 286 286 284 283 284 283 282 281 280 279 279 277 276 275 274 273 273 272 271 271 272 273 275 275 275 275 274 274 274 275 275 275 275 275 275 274
296 294 296 299 296 292 289 285 284 284 283 282 281 281 281 280 278 277 277 275 274 273 272 271 270 270 269 270 271 272 273 274 273 273 272 272 272 272 272 273 274 274 274 274
292 292 298 298 291 291 286 283 283 282 281 281 280 279 278 278 277 275 274 273 272 270 270 269 269 269 269 270 270 271 271 272 271 270 270 270 270 270 270 270 270 271 272 272
Wind_Speed
14 10 11 14 17 20 16 20 20 20 19 18 16 15 14 13 15 17 19 20 14 17 12 29 29 32 30 31 30 30 32 31 32 29 29 28 26 28 25 24 25 23 25 24
13 16 17 20 21 21 21 22 22 19 20 17 17 19 16 18 19 16 15 15 19 16 17 13 23 29 31 30 33 32 32 31 33 30 29 27 25 28 26 26 23 23 25 26
15 21 19 22 24 21 21 20 21 22 18 16 16 19 18 16 21 20 20 16 17 20 15 16 20 26 31 31 32 31 33 33 30 28 26 26 25 25 23 24 26 24 25 25
14 12 14 17 21 18 24 19 24 21 18 13 13 15 15 14 19 20 20 18 15 17 17 15 18 21 30 32 30 31 32 33 33 30 27 30 28 23 21 28 30 29 28 27
13 20 22 23 24 21 22 17 20 19 14 14 19 10 14 15 19 21 22 21 20 16 17 20 13 30 34 34 34 31 32 31 32 32 28 27 26 26 25 28 31 29 29 28
21 22 20 19 20 20 21 16 13 14 8 12 22 16 10 16 20 18 18 24 22 20 19 18 15 32 29 32 33 29 31 32 32 36 31 29 27 27 25 30 31 32 30 29
24 9 4 5 10 10 4 3 3 4 6 10 11 12 17 13 21 23 21 25 24 23 21 16 10 12 24 27 28 28 29 30 34 35 35 31 31 29 29 35 37 36 33 32
9 20 7 4 10 6 11 7 2 3 3 5 12 9 14 27 25 19 16 17 23 25 21 19 13 8 18 27 30 28 31 32 33 33 35 36 33 29 31 38 39 39 38 35
8 9 15 11 15 4 0 3 8 7 5 5 6 13 13 13 23 23 19 14 23 23 15 12 14 11 21 29 32 32 28 31 32 33 34 35 37 32 31 35 36 37 36 34
5 12 9 19 1 2 4 9 0 2 4 4 6 8 4 10 14 11 13 14 15 19 16 16 11 11 18 24 25 28 27 28 31 34 32 31 32 33 34 34 35 35 34 33
12 5 13 13 7 11 3 2 4 6 3 3 7 3 7 13 12 9 8 11 7 17 16 13 13 13 20 23 23 24 24 27 28 31 30 31 32 33 36 35 36 35 34 33
7 4 6 20 12 2 4 10 6 4 3 3 4 3 10 16 15 14 13 14 15 13 11 10 10 11 16 15 16 15 16 21 25 27 26 30 32 33 33 32 32 33 33 30
9 3 7 8 1 1 9 20 18 16 5 2 5 3 17 18 14 15 13 13 13 14 15 15 16 14 14 19 22 17 12 12 13 16 23 22 23 25 23 22 23 24 27 28
14 3 6 7 13 10 9 20 23 17 4 6 5 10 17 18 12 13 14 13 14 15 16 16 16 15 20 22 24 25 26 23 21 20 22 22 19 18 17 16 16 18 20 22
6 4 8 14 18 9 17 20 20 21 17 7 9 11 17 16 12 13 14 14 19 20 20 18 17 15 20 23 25 27 29 26 24 24 24 23 20 21 19 21 23 26 23 17
4 4 12 5 4 11 11 23 15 23 22 9 10 14 16 15 15 19 18 19 21 21 20 19 19 18 18 27 26 29 30 32 30 32 28 25 29 27 27 21 21 18 15 13
5 6 7 5 8 8 6 23 13 17 22 11 12 9 13 21 22 21 20 20 22 21 20 21 20 20 27 31 29 31 33 35 38 34 32 30 29 27 22 20 17 16 17 13
9 11 3 5 9 5 6 18 10 11 26 26 18 15 12 15 21 26 23 21 23 21 21 20 21 28 29 32 33 34 36 40 35 36 37 27 27 25 21 24 21 18 17 16
4 3 4 4 6 1 21 23 14 6 17 26 20 20 15 7 26 26 22 21 21 19 19 25 31 29 36 34 33 39 35 35 39 34 31 28 27 25 24 24 21 17 17 17
11 4 0 4 5 11 19 28 25 5 18 26 21 20 18 15 22 9 16 18 21 30 32 29 30 34 39 31 29 39 32 36 32 29 29 28 28 29 28 26 24 22 22 22
8 5 10 10 6 5 20 27 13 10 6 17 16 13 17 15 9 6 13 22 29 30 32 30 35 34 31 30 32 36 32 33 26 29 31 32 32 31 29 29 29 27 27 28
6 6 5 5 7 7 22 10 8 7 7 9 13 14 14 12 14 17 18 19 25 28 29 31 30 31 33 33 34 31 33 26 28 31 34 35 35 32 31 31 31 32 29 28
4 3 3 6 3 2 7 9 8 7 6 11 12 12 12 15 17 16 15 16 23 26 26 28 26 31 36 36 33 30 28 28 30 34 36 35 34 34 34 34 31 29 29 27
1 2 2 2 2 4 8 6 8 8 9 12 12 11 13 15 14 16 15 18 21 25 25 22 25 29 28 32 33 30 28 30 33 34 32 33 34 32 31 32 29 28 27 25
1 4 3 4 3 4 8 10 8 8 8 10 14 14 12 13 14 12 12 18 19 18 19 21 24 26 28 32 35 33 31 30 33 34 32 31 31 31 30 28 27 25 27 26
2 1 1 2 1 1 2 5 7 8 10 10 10 13 18 17 14 16 17 18 18 21 22 26 29 31 32 34 35 34 33 32 32 30 28 28 26 26 27 27 27 24 22 22
Wind_Direction
264 236 241 252 262 263 262 267 266 270 272 276 277 290 292 282 240 249 239 238 248 244 225 200 187 179 184 188 183 186 184 185 184 184 179 183 179 185 187 189 190 193 203 205
289 268 264 264 265 267 273 275 266 272 265 271 281 281 284 283 281 275 255 225 234 250 241 215 180 180 180 186 192 189 186 185 185 187 188 182 181 185 188 185 185 198 201 206
280 280 295 285 276 275 262 262 259 257 271 260 268 267 262 249 255 267 267 272 222 225 247 227 200 181 180 188 194 194 187 188 187 188 184 179 184 183 185 187 188 185 199 204
280 274 279 297 286 278 280 273 262 264 262 254 238 264 253 248 251 243 250 250 252 219 232 256 192 172 183 186 193 195 191 188 191 189 188 177 174 175 185 190 195 197 205 202
265 291 288 282 273 278 279 276 259 266 243 254 251 254 250 245 255 237 233 236 240 247 220 237 227 185 186 183 190 200 195 189 188 190 191 183 187 186 189 190 202 205 201 200
265 279 289 273 291 283 270 262 251 242 230 244 240 227 232 234 238 251 217 225 228 231 225 232 247 175 176 182 184 197 199 197 192 191 196 190 189 182 183 191 194 199 198 197
315 287 304 328 316 299 281 175 204 176 213 244 229 231 236 240 227 234 248 210 217 222 212 219 219 169 173 180 179 186 192 196 196 194 198 195 189 190 191 189 195 198 196 198
345 322 350 222 295 262 278 274 220 226 226 254 216 226 225 218 240 250 247 223 206 217 199 208 209 175 167 175 183 181 196 199 199 199 200 191 189 197 194 200 202 206 204 204
320 287 309 289 305 230 316 195 299 317 241 263 237 246 239 229 216 231 237 257 197 205 198 191 197 199 170 179 186 186 194 198 199 198 194 192 195 200 194 204 208 206 206 206
287 293 299 329 49 89 326 328 309 231 294 276 280 267 181 304 219 218 218 230 203 192 200 199 201 192 168 173 180 182 196 203 201 200 197 196 193 202 197 205 205 205 204 204
301 245 292 324 357 325 307 330 281 289 219 270 313 74 8 0 11 354 211 190 207 190 189 182 185 162 155 160 168 183 194 204 202 200 198 196 195 198 200 203 206 202 201 201
324 295 290 298 293 254 56 2 301 272 189 226 220 251 2 2 9 4 355 32 37 55 64 81 89 81 85 110 146 168 195 197 203 200 193 196 191 189 190 194 198 200 195 192
354 300 301 326 182 180 10 349 326 300 231 232 336 353 2 3 10 18 31 37 41 49 59 65 63 65 62 62 70 79 89 107 151 165 175 167 167 174 175 179 183 184 181 175
341 260 260 267 281 304 335 359 2 8 37 337 27 354 345 356 14 30 46 47 59 58 59 64 62 62 63 65 67 66 65 71 80 93 86 87 100 107 117 131 141 140 142 141
315 280 280 279 276 271 28 4 16 20 1 41 0 20 355 359 31 45 60 62 65 60 59 61 63 64 64 66 68 68 66 69 79 77 89 92 99 106 111 123 125 125 135 145
321 276 315 291 353 88 53 16 13 22 11 7 25 36 0 20 41 49 53 62 65 63 63 65 66 67 67 67 67 71 70 68 72 72 65 82 96 100 102 106 115 118 110 103
295 320 326 289 326 318 23 13 4 21 24 355 21 25 21 39 43 42 50 59 64 63 64 65 63 64 65 66 68 68 71 72 65 69 75 73 82 82 90 91 84 75 75 73
294 317 282 296 321 59 16 12 353 352 26 14 11 10 51 60 62 46 36 50 56 54 56 58 56 51 56 60 60 61 60 64 65 58 62 64 66 69 67 77 72 62 57 53
273 296 314 318 359 353 6 357 341 348 30 11 8 11 7 60 69 41 24 39 50 42 46 56 57 52 52 48 61 67 57 60 61 58 64 67 70 71 66 64 65 61 57 51
331 246 296 324 47 26 350 342 331 238 36 357 8 20 19 14 69 31 13 35 42 45 41 41 54 54 49 41 57 62 53 54 46 50 63 70 71 69 65 61 57 57 59 57
336 356 23 7 53 54 353 339 350 53 331 343 10 22 39 50 53 45 41 43 45 48 46 43 48 52 47 45 54 59 52 47 52 62 67 69 68 68 70 67 66 66 60 57
355 341 8 3 35 17 356 348 47 349 346 359 20 26 48 58 58 50 48 46 44 46 43 47 50 49 47 51 57 55 50 57 66 68 67 63 65 63 63 58 55 54 51 48
31 18 2 31 59 11 349 33 14 359 14 25 34 34 48 58 55 53 52 51 49 49 47 46 51 53 49 53 57 53 56 62 66 64 61 61 62 59 54 54 49 47 46 43
112 3 50 163 61 41 34 30 21 18 39 31 37 46 46 57 51 55 51 47 46 42 43 46 53 53 48 50 59 62 63 63 64 64 57 57 58 57 56 51 52 51 46 43
286 333 10 83 96 179 56 21 15 34 33 52 44 46 57 68 61 61 60 57 57 58 53 52 54 53 47 53 56 58 60 64 62 60 58 55 54 54 55 57 49 53 52 46
13 75 19 102 29 77 23 16 20 46 40 37 58 56 51 63 71 67 62 56 51 46 46 50 53 57 57 59 56 54 56 59 62 57 50 51 50 49 47 44 49 52 49 42